AAL3030 KPWM-KDCA

Flight info

Callsign AAL3030
Flight time 1h 27m
Altitude 38000
Route NELIE Q75 MXE CLIPR3
Aircraft A319/M-SDE3FGHIRWY/LB1

Departure

Time 2026-05-07 01:57
Airport Portland International Jetport (KPWM)

Arrival

Time 2026-05-07 03:24
Airport Ronald Reagan Washington National Airport (KDCA)
Time Latitude Longitude Altitude Speed Heading
2026-05-07 01:46 43.64677 -70.31058 61 ft 0 kts
2026-05-07 01:51 43.64666 -70.31060 68 ft 3 kts
2026-05-07 01:51 43.64648 -70.31062 62 ft 3 kts
2026-05-07 01:51 43.64629 -70.31065 65 ft 3 kts
2026-05-07 01:51 43.64611 -70.31066 65 ft 3 kts 20°
2026-05-07 01:52 43.64597 -70.31081 65 ft 2 kts 50°
2026-05-07 01:52 43.64588 -70.31096 61 ft 0 kts 84°
2026-05-07 01:52 43.64589 -70.31080 66 ft 3 kts 83°
2026-05-07 01:52 43.64590 -70.31037 66 ft 6 kts 91°
2026-05-07 01:53 43.64586 -70.30964 66 ft 10 kts 96°
2026-05-07 01:53 43.64578 -70.30858 65 ft 12 kts 96°
2026-05-07 01:53 43.64571 -70.30734 58 ft 12 kts 89°
2026-05-07 01:53 43.64640 -70.30696 60 ft 12 kts 356°
2026-05-07 01:54 43.64725 -70.30700 63 ft 12 kts 359°
2026-05-07 01:54 43.64813 -70.30702 67 ft 13 kts 358°
2026-05-07 01:54 43.64903 -70.30708 61 ft 14 kts 358°
2026-05-07 01:54 43.65005 -70.30713 63 ft 16 kts 358°
2026-05-07 01:55 43.65116 -70.30717 61 ft 16 kts 352°
2026-05-07 01:55 43.65231 -70.30766 60 ft 18 kts 342°
2026-05-07 01:55 43.65352 -70.30828 54 ft 19 kts 340°
2026-05-07 01:55 43.65428 -70.30770 59 ft 14 kts 68°
2026-05-07 01:56 43.65386 -70.30708 60 ft 10 kts 160°
2026-05-07 01:56 43.65263 -70.30657 59 ft 41 kts 163°
2026-05-07 01:56 43.64753 -70.30444 59 ft 109 kts 163°
2026-05-07 01:56 43.63859 -70.30082 206 ft 145 kts 166°
2026-05-07 01:57 43.62916 -70.29703 838 ft 142 kts 167°
2026-05-07 01:57 43.61984 -70.29312 1453 ft 142 kts 172°
2026-05-07 01:57 43.60980 -70.29094 1755 ft 158 kts 197°
2026-05-07 01:57 43.60020 -70.29936 2018 ft 174 kts 230°
2026-05-07 01:58 43.59149 -70.31258 2352 ft 201 kts 231°
2026-05-07 01:58 43.58159 -70.32775 2816 ft 225 kts 231°
2026-05-07 01:58 43.57069 -70.34439 3532 ft 240 kts 231°
2026-05-07 01:58 43.55931 -70.36160 4430 ft 246 kts 230°
2026-05-07 01:59 43.54761 -70.37918 5341 ft 251 kts 230°
2026-05-07 01:59 43.53570 -70.39701 6293 ft 254 kts 229°
2026-05-07 01:59 43.52383 -70.41478 7189 ft 257 kts 229°
2026-05-07 01:59 43.51168 -70.43291 8120 ft 258 kts 229°
2026-05-07 02:00 43.49945 -70.45116 9061 ft 261 kts 229°
2026-05-07 02:00 43.48711 -70.46959 9961 ft 263 kts 230°
2026-05-07 02:00 43.47420 -70.48894 10298 ft 286 kts 230°
2026-05-07 02:00 43.46023 -70.50989 10658 ft 305 kts 229°
2026-05-07 02:01 43.44564 -70.53165 11347 ft 312 kts 229°
2026-05-07 02:01 43.43080 -70.55365 12142 ft 315 kts 229°
2026-05-07 02:01 43.41581 -70.57587 12940 ft 318 kts 229°
2026-05-07 02:01 43.40090 -70.59795 13711 ft 321 kts 229°
2026-05-07 02:02 43.38568 -70.62049 14425 ft 323 kts 229°
2026-05-07 02:02 43.37039 -70.64316 15155 ft 324 kts 229°
2026-05-07 02:02 43.35504 -70.66593 15871 ft 326 kts 229°
2026-05-07 02:02 43.33962 -70.68879 16613 ft 327 kts 229°
2026-05-07 02:03 43.32413 -70.71175 17353 ft 328 kts 229°
2026-05-07 02:03 43.30860 -70.73479 18093 ft 329 kts 229°
2026-05-07 02:03 43.29298 -70.75793 18707 ft 331 kts 229°
2026-05-07 02:03 43.27745 -70.78082 19275 ft 334 kts 229°
2026-05-07 02:04 43.26154 -70.80426 19857 ft 337 kts 229°
2026-05-07 02:04 43.24549 -70.82791 20423 ft 340 kts 229°
2026-05-07 02:04 43.22929 -70.85177 20991 ft 343 kts 229°
2026-05-07 02:04 43.21293 -70.87582 21540 ft 347 kts 229°
2026-05-07 02:05 43.19639 -70.90007 22088 ft 350 kts 229°
2026-05-07 02:05 43.17972 -70.92456 22606 ft 353 kts 229°
2026-05-07 02:05 43.16292 -70.94925 23116 ft 356 kts 229°
2026-05-07 02:05 43.14620 -70.97380 23575 ft 359 kts 230°
2026-05-07 02:06 43.12912 -70.99885 24019 ft 360 kts 230°
2026-05-07 02:06 43.11200 -71.02392 24494 ft 361 kts 230°
2026-05-07 02:06 43.09482 -71.04905 24951 ft 362 kts 231°
2026-05-07 02:06 43.07765 -71.07419 25419 ft 362 kts 231°
2026-05-07 02:07 43.06042 -71.09939 25880 ft 363 kts 231°
2026-05-07 02:07 43.02580 -71.14983 26790 ft 364 kts 232°
2026-05-07 02:07 43.00848 -71.17501 27274 ft 364 kts 232°
2026-05-07 02:08 42.99114 -71.20019 27733 ft 364 kts 233°
2026-05-07 02:08 42.97380 -71.22537 28163 ft 365 kts 233°
2026-05-07 02:08 42.95661 -71.25034 28569 ft 366 kts 233°
2026-05-07 02:08 42.93916 -71.27569 28960 ft 367 kts 233°
2026-05-07 02:09 42.92165 -71.30113 29356 ft 368 kts 234°
2026-05-07 02:09 42.90412 -71.32655 29749 ft 369 kts 234°
2026-05-07 02:09 42.88650 -71.35206 30089 ft 370 kts 234°
2026-05-07 02:09 42.86881 -71.37764 30322 ft 372 kts 234°
2026-05-07 02:10 42.85102 -71.40333 30649 ft 372 kts 234°
2026-05-07 02:10 42.83328 -71.42890 31059 ft 371 kts 234°
2026-05-07 02:10 42.81561 -71.45438 31455 ft 370 kts 234°
2026-05-07 02:10 42.79820 -71.47950 31843 ft 369 kts 235°
2026-05-07 02:11 42.78060 -71.50491 32230 ft 368 kts 235°
2026-05-07 02:11 42.76303 -71.53023 32615 ft 368 kts 235°
2026-05-07 02:11 42.74546 -71.55549 33019 ft 367 kts 235°
2026-05-07 02:11 42.72789 -71.58064 33461 ft 366 kts 235°
2026-05-07 02:12 42.71041 -71.60567 33836 ft 364 kts 236°
2026-05-07 02:12 42.69304 -71.63055 34213 ft 362 kts 236°
2026-05-07 02:12 42.67572 -71.65542 34554 ft 362 kts 236°
2026-05-07 02:12 42.65866 -71.67990 34841 ft 362 kts 235°
2026-05-07 02:13 42.64133 -71.70472 35154 ft 362 kts 235°
2026-05-07 02:13 42.62398 -71.72954 35454 ft 362 kts 235°
2026-05-07 02:13 42.60661 -71.75432 35750 ft 362 kts 235°
2026-05-07 02:13 42.58921 -71.77909 36038 ft 363 kts 235°
2026-05-07 02:14 42.57181 -71.80388 36318 ft 363 kts 235°
2026-05-07 02:14 42.55440 -71.82868 36567 ft 363 kts 235°
2026-05-07 02:14 42.53701 -71.85341 36868 ft 362 kts 235°
2026-05-07 02:14 42.51962 -71.87809 37154 ft 362 kts 235°
2026-05-07 02:15 42.50244 -71.90246 37425 ft 362 kts 235°
2026-05-07 02:15 42.48503 -71.92718 37702 ft 363 kts 235°
2026-05-07 02:15 42.45018 -71.97656 37803 ft 362 kts 235°
2026-05-07 02:16 42.41538 -72.02577 37810 ft 362 kts 235°
2026-05-07 02:16 42.38059 -72.07487 37811 ft 361 kts 236°
2026-05-07 02:17 42.34616 -72.12348 37814 ft 360 kts 236°
2026-05-07 02:17 42.31150 -72.17230 37819 ft 360 kts 236°
2026-05-07 02:18 42.27682 -72.22101 37812 ft 360 kts 236°
2026-05-07 02:18 42.24210 -72.26975 37857 ft 360 kts 235°
2026-05-07 02:19 42.20760 -72.31804 37814 ft 360 kts 236°
2026-05-07 02:19 42.17282 -72.36649 37836 ft 359 kts 236°
2026-05-07 02:20 42.13815 -72.41486 37847 ft 359 kts 236°
2026-05-07 02:20 42.10353 -72.46318 37852 ft 358 kts 236°
2026-05-07 02:21 42.06891 -72.51144 37817 ft 358 kts 236°
2026-05-07 02:21 42.03451 -72.55922 37848 ft 358 kts 236°
2026-05-07 02:22 41.99983 -72.60724 37898 ft 358 kts 236°
2026-05-07 02:22 41.96513 -72.65513 37891 ft 357 kts 236°
2026-05-07 02:23 41.93057 -72.70289 37889 ft 356 kts 236°
2026-05-07 02:23 41.89590 -72.75044 37824 ft 356 kts 236°
2026-05-07 02:24 41.86145 -72.79753 37848 ft 356 kts 236°
2026-05-07 02:24 41.82670 -72.84481 37856 ft 356 kts 236°
2026-05-07 02:25 41.79196 -72.89208 37851 ft 356 kts 236°
2026-05-07 02:25 41.75732 -72.93937 37855 ft 356 kts 236°
2026-05-07 02:26 41.72292 -72.98610 37835 ft 353 kts 237°
2026-05-07 02:26 41.68851 -73.03263 37852 ft 351 kts 237°
2026-05-07 02:27 41.65422 -73.07916 37863 ft 351 kts 237°
2026-05-07 02:27 41.61993 -73.12561 37871 ft 351 kts 237°
2026-05-07 02:28 41.58563 -73.17196 37872 ft 351 kts 237°
2026-05-07 02:28 41.55158 -73.21796 37874 ft 351 kts 237°
2026-05-07 02:29 41.51723 -73.26416 37866 ft 350 kts 236°
2026-05-07 02:29 41.48285 -73.31026 37905 ft 350 kts 237°
2026-05-07 02:30 41.44877 -73.35647 37889 ft 349 kts 237°
2026-05-07 02:30 41.41500 -73.40274 37870 ft 348 kts 237°
2026-05-07 02:31 41.38148 -73.44850 37831 ft 347 kts 237°
2026-05-07 02:31 41.34772 -73.49440 37845 ft 347 kts 237°
2026-05-07 02:32 41.31396 -73.54022 37844 ft 346 kts 237°
2026-05-07 02:32 41.28061 -73.58627 37845 ft 340 kts 241°
2026-05-07 02:33 41.25121 -73.63479 37854 ft 339 kts 242°
2026-05-07 02:33 41.22161 -73.68353 37832 ft 337 kts 242°
2026-05-07 02:34 41.19214 -73.73193 37856 ft 337 kts 242°
2026-05-07 02:34 41.16259 -73.78028 37872 ft 337 kts 242°
2026-05-07 02:35 41.13329 -73.82870 37873 ft 336 kts 242°
2026-05-07 02:35 41.10474 -73.87709 37873 ft 335 kts 242°
2026-05-07 02:36 41.07598 -73.92576 37876 ft 335 kts 242°
2026-05-07 02:36 41.04702 -73.97427 37842 ft 335 kts 242°
2026-05-07 02:37 41.01806 -74.02268 37886 ft 335 kts 242°
2026-05-07 02:37 40.98917 -74.07101 37890 ft 334 kts 242°
2026-05-07 02:38 40.96042 -74.11888 37903 ft 334 kts 242°
2026-05-07 02:38 40.93151 -74.16701 37910 ft 334 kts 242°
2026-05-07 02:39 40.90262 -74.21508 37914 ft 334 kts 242°
2026-05-07 02:39 40.87375 -74.26301 37873 ft 333 kts 242°
2026-05-07 02:40 40.84492 -74.31086 37886 ft 333 kts 242°
2026-05-07 02:40 40.81627 -74.35833 37902 ft 333 kts 242°
2026-05-07 02:41 40.78739 -74.40604 37901 ft 332 kts 242°
2026-05-07 02:41 40.75903 -74.45286 37901 ft 332 kts 242°
2026-05-07 02:42 40.73021 -74.50034 37899 ft 331 kts 242°
2026-05-07 02:42 40.70143 -74.54767 37847 ft 331 kts 243°
2026-05-07 02:43 40.67283 -74.59464 37869 ft 331 kts 243°
2026-05-07 02:43 40.64404 -74.64182 37884 ft 330 kts 243°
2026-05-07 02:44 40.61527 -74.68896 37885 ft 330 kts 243°
2026-05-07 02:44 40.58650 -74.73608 37887 ft 330 kts 243°
2026-05-07 02:45 40.55606 -74.78191 37887 ft 335 kts 239°
2026-05-07 02:45 40.52416 -74.82618 37853 ft 336 kts 239°
2026-05-07 02:46 40.49201 -74.87072 37857 ft 336 kts 239°
2026-05-07 02:46 40.46012 -74.91548 37864 ft 335 kts 239°
2026-05-07 02:47 40.42831 -74.96026 37871 ft 335 kts 239°
2026-05-07 02:47 40.39674 -75.00483 37891 ft 335 kts 239°
2026-05-07 02:48 40.36498 -75.04956 37841 ft 335 kts 240°
2026-05-07 02:48 40.33330 -75.09404 37888 ft 333 kts 239°
2026-05-07 02:49 40.30166 -75.13829 37899 ft 332 kts 239°
2026-05-07 02:49 40.27028 -75.18217 37901 ft 332 kts 239°
2026-05-07 02:50 40.23879 -75.22622 37909 ft 331 kts 239°
2026-05-07 02:50 40.20721 -75.27019 37908 ft 331 kts 239°
2026-05-07 02:51 40.17563 -75.31412 37871 ft 331 kts 240°
2026-05-07 02:51 40.14408 -75.35806 37879 ft 331 kts 240°
2026-05-07 02:52 40.11277 -75.40161 37369 ft 330 kts 239°
2026-05-07 02:52 40.09701 -75.42351 36664 ft 332 kts 239°
2026-05-07 02:52 40.08116 -75.44552 36007 ft 333 kts 239°
2026-05-07 02:53 40.06524 -75.46762 35350 ft 334 kts 239°
2026-05-07 02:53 40.04928 -75.48978 34644 ft 337 kts 238°
2026-05-07 02:53 40.03316 -75.51214 33932 ft 339 kts 238°
2026-05-07 02:53 40.01711 -75.53436 33078 ft 343 kts 238°
2026-05-07 02:54 40.00069 -75.55709 32163 ft 346 kts 237°
2026-05-07 02:54 39.98405 -75.58009 31186 ft 352 kts 236°
2026-05-07 02:54 39.96713 -75.60347 30378 ft 355 kts 235°
2026-05-07 02:54 39.95018 -75.62670 29747 ft 352 kts 234°
2026-05-07 02:55 39.93336 -75.64965 29050 ft 349 kts 234°
2026-05-07 02:55 39.91716 -75.67282 28359 ft 341 kts 239°
2026-05-07 02:55 39.90378 -75.69794 27712 ft 336 kts 242°
2026-05-07 02:55 39.89095 -75.72275 27067 ft 333 kts 242°
2026-05-07 02:56 39.87801 -75.74768 26447 ft 331 kts 242°
2026-05-07 02:56 39.86512 -75.77244 25828 ft 329 kts 242°
2026-05-07 02:56 39.85231 -75.79701 25251 ft 327 kts 242°
2026-05-07 02:56 39.83957 -75.82141 24666 ft 325 kts 242°
2026-05-07 02:57 39.82688 -75.84567 24087 ft 324 kts 242°
2026-05-07 02:57 39.81424 -75.86985 23532 ft 323 kts 242°
2026-05-07 02:57 39.80163 -75.89396 22906 ft 322 kts 242°
2026-05-07 02:57 39.78906 -75.91802 22316 ft 321 kts 242°
2026-05-07 02:58 39.77669 -75.94170 21779 ft 321 kts 241°
2026-05-07 02:58 39.76415 -75.96566 21239 ft 320 kts 241°
2026-05-07 02:58 39.75162 -75.98958 20694 ft 320 kts 241°
2026-05-07 02:58 39.73910 -76.01347 20157 ft 320 kts 240°
2026-05-07 02:59 39.72656 -76.03737 19633 ft 320 kts 240°
2026-05-07 02:59 39.71399 -76.06118 19117 ft 320 kts 240°
2026-05-07 02:59 39.70142 -76.08500 18599 ft 320 kts 240°
2026-05-07 02:59 39.68889 -76.10881 18079 ft 320 kts 239°
2026-05-07 03:00 39.67632 -76.13268 17510 ft 319 kts 239°
2026-05-07 03:00 39.66399 -76.15611 17044 ft 317 kts 239°
2026-05-07 03:00 39.65161 -76.17960 16580 ft 314 kts 239°
2026-05-07 03:00 39.63929 -76.20291 16059 ft 312 kts 238°
2026-05-07 03:01 39.62700 -76.22610 15570 ft 311 kts 238°
2026-05-07 03:01 39.61477 -76.24918 15094 ft 310 kts 238°
2026-05-07 03:01 39.60263 -76.27216 14635 ft 308 kts 238°
2026-05-07 03:01 39.58984 -76.29437 14185 ft 308 kts 230°
2026-05-07 03:02 39.57373 -76.31278 13731 ft 310 kts 219°
2026-05-07 03:02 39.55586 -76.32831 13242 ft 309 kts 218°
2026-05-07 03:02 39.53831 -76.34354 12756 ft 306 kts 218°
2026-05-07 03:02 39.52065 -76.35889 12266 ft 304 kts 218°
2026-05-07 03:03 39.50313 -76.37411 11927 ft 303 kts 218°
2026-05-07 03:03 39.48559 -76.38938 11877 ft 304 kts 218°
2026-05-07 03:03 39.46803 -76.40464 11891 ft 304 kts 218°
2026-05-07 03:03 39.45045 -76.41989 11864 ft 304 kts 218°
2026-05-07 03:04 39.43274 -76.43523 11888 ft 308 kts 218°
2026-05-07 03:04 39.41492 -76.45068 11892 ft 309 kts 218°
2026-05-07 03:04 39.39703 -76.46617 11891 ft 310 kts 218°
2026-05-07 03:04 39.37936 -76.48143 11891 ft 310 kts 218°
2026-05-07 03:05 39.36141 -76.49692 11926 ft 310 kts 218°
2026-05-07 03:05 39.34352 -76.51237 11932 ft 309 kts 218°
2026-05-07 03:05 39.32573 -76.52776 11926 ft 307 kts 218°
2026-05-07 03:05 39.30797 -76.54314 11923 ft 307 kts 218°
2026-05-07 03:06 39.29023 -76.55850 11921 ft 307 kts 218°
2026-05-07 03:06 39.27249 -76.57385 11905 ft 307 kts 218°
2026-05-07 03:06 39.25476 -76.58914 11904 ft 304 kts 218°
2026-05-07 03:06 39.23768 -76.60380 11895 ft 287 kts 218°
2026-05-07 03:07 39.22172 -76.61746 11902 ft 272 kts 218°
2026-05-07 03:07 39.20621 -76.63075 11904 ft 265 kts 218°
2026-05-07 03:07 39.19093 -76.64390 11907 ft 264 kts 218°
2026-05-07 03:07 39.17569 -76.65704 11903 ft 263 kts 219°
2026-05-07 03:08 39.16177 -76.67205 11906 ft 260 kts 227°
2026-05-07 03:08 39.14852 -76.68792 11909 ft 260 kts 226°
2026-05-07 03:08 39.13524 -76.70374 11905 ft 260 kts 226°
2026-05-07 03:08 39.12192 -76.71955 11943 ft 261 kts 226°
2026-05-07 03:09 39.10856 -76.73534 11942 ft 260 kts 226°
2026-05-07 03:09 39.09539 -76.75087 11945 ft 260 kts 226°
2026-05-07 03:09 39.08207 -76.76661 11943 ft 260 kts 226°
2026-05-07 03:09 39.06876 -76.78238 11945 ft 260 kts 226°
2026-05-07 03:10 39.05543 -76.79813 11944 ft 260 kts 226°
2026-05-07 03:10 39.04212 -76.81386 11927 ft 260 kts 226°
2026-05-07 03:10 39.02878 -76.82962 11942 ft 260 kts 226°
2026-05-07 03:10 39.01544 -76.84535 11942 ft 260 kts 226°
2026-05-07 03:11 39.00209 -76.86111 11940 ft 261 kts 226°
2026-05-07 03:11 38.98872 -76.87686 11930 ft 261 kts 226°
2026-05-07 03:11 38.97554 -76.89239 11925 ft 261 kts 226°
2026-05-07 03:11 38.96197 -76.90782 11996 ft 261 kts 224°
2026-05-07 03:12 38.94829 -76.92239 12031 ft 262 kts 223°
2026-05-07 03:12 38.93271 -76.93483 12036 ft 269 kts 208°
2026-05-07 03:12 38.91442 -76.94073 11795 ft 277 kts 192°
2026-05-07 03:12 38.89507 -76.94130 11457 ft 278 kts 188°
2026-05-07 03:13 38.87574 -76.94169 11131 ft 277 kts 189°
2026-05-07 03:13 38.85652 -76.94219 10811 ft 275 kts 189°
2026-05-07 03:13 38.83740 -76.94274 10479 ft 274 kts 189°
2026-05-07 03:13 38.81844 -76.94330 10175 ft 271 kts 189°
2026-05-07 03:14 38.79990 -76.94384 9862 ft 269 kts 189°
2026-05-07 03:14 38.78125 -76.94438 9509 ft 268 kts 188°
2026-05-07 03:14 38.74375 -76.94109 8726 ft 270 kts 183°
2026-05-07 03:15 38.72503 -76.93929 8336 ft 269 kts 183°
2026-05-07 03:15 38.70637 -76.93748 7946 ft 268 kts 183°
2026-05-07 03:15 38.68785 -76.93565 7409 ft 266 kts 183°
2026-05-07 03:15 38.66940 -76.93391 6831 ft 265 kts 183°
2026-05-07 03:16 38.65108 -76.93226 6263 ft 264 kts 182°
2026-05-07 03:16 38.63308 -76.93066 5688 ft 262 kts 182°
2026-05-07 03:16 38.61492 -76.92904 5089 ft 261 kts 181°
2026-05-07 03:16 38.59680 -76.92747 4500 ft 259 kts 183°
2026-05-07 03:17 38.58001 -76.93039 4376 ft 233 kts 204°
2026-05-07 03:17 38.56650 -76.94018 4250 ft 217 kts 224°
2026-05-07 03:17 38.55731 -76.95458 4123 ft 204 kts 243°
2026-05-07 03:17 38.55272 -76.97125 3915 ft 198 kts 261°
2026-05-07 03:18 38.55272 -76.98879 3622 ft 199 kts 278°
2026-05-07 03:18 38.55727 -77.00531 3348 ft 203 kts 296°
2026-05-07 03:18 38.56618 -77.01944 3085 ft 208 kts 315°
2026-05-07 03:18 38.57863 -77.02905 2806 ft 213 kts 335°
2026-05-07 03:19 38.59334 -77.03251 2518 ft 218 kts 357°
2026-05-07 03:19 38.60836 -77.03060 2418 ft 216 kts
2026-05-07 03:19 38.62335 -77.02851 2432 ft 217 kts
2026-05-07 03:19 38.63822 -77.02651 2427 ft 210 kts
2026-05-07 03:20 38.65239 -77.02460 2423 ft 203 kts
2026-05-07 03:20 38.66622 -77.02273 2426 ft 202 kts
2026-05-07 03:20 38.68015 -77.02156 2402 ft 200 kts 360°
2026-05-07 03:20 38.69410 -77.02213 2403 ft 201 kts 356°
2026-05-07 03:21 38.70793 -77.02334 2398 ft 195 kts 355°
2026-05-07 03:21 38.72113 -77.02463 2294 ft 187 kts 355°
2026-05-07 03:21 38.73395 -77.02592 2111 ft 184 kts 355°
2026-05-07 03:21 38.74668 -77.02720 1894 ft 182 kts 356°
2026-05-07 03:22 38.75907 -77.02844 1640 ft 175 kts 355°
2026-05-07 03:22 38.77083 -77.02963 1409 ft 163 kts 355°
2026-05-07 03:22 38.78165 -77.03072 1205 ft 153 kts 356°
2026-05-07 03:22 38.79152 -77.03171 1016 ft 135 kts 355°
2026-05-07 03:23 38.80053 -77.03262 836 ft 128 kts 356°
2026-05-07 03:23 38.80923 -77.03354 662 ft 126 kts 356°
2026-05-07 03:23 38.81782 -77.03446 490 ft 122 kts 355°
2026-05-07 03:23 38.82625 -77.03520 353 ft 122 kts 354°
2026-05-07 03:24 38.83467 -77.03606 219 ft 121 kts 355°
2026-05-07 03:24 38.84297 -77.03688 43 ft 120 kts 353°
2026-05-07 03:24 38.85022 -77.03762 24 ft 82 kts 355°
2026-05-07 03:24 38.85421 -77.03802 24 ft 33 kts 355°
2026-05-07 03:25 38.85551 -77.03838 28 ft 12 kts 346°
2026-05-07 03:25 38.85638 -77.03865 25 ft 14 kts 336°
2026-05-07 03:25 38.85698 -77.03978 26 ft 17 kts 268°
2026-05-07 03:25 38.85615 -77.04037 24 ft 14 kts 176°
2026-05-07 03:26 38.85538 -77.04085 25 ft 14 kts 252°
2026-05-07 03:26 38.85508 -77.04210 26 ft 15 kts 251°
2026-05-07 03:26 38.85460 -77.04299 24 ft 10 kts 171°
2026-05-07 03:26 38.85426 -77.04281 24 ft 0 kts 162°